Regional Weather Roundup
Issued by NWS Charleston, SC

Current Version | Previous Version | Graphics & Text | Print | Product List | Glossary On
Versions: 1 2 3 4 5 6 7 8 9 10 11 12 13 14 15 16 17 18 19 20 21 22 23 24 25 26 27 28 29 30 31 32 33 34 35 36 37 38 39 40 41 42 43 44 45 46 47 48 49 50
000 ASUS42 KCHS 172127 RWRCHS REGIONAL WEATHER ROUNDUP NATIONAL WEATHER SERVICE CHARLESTON SC 500 PM EDT TUE OCT 17 2017 NOTE: "FAIR" INDICATES FEW OR NO CLOUDS BELOW 12,000 FEET WITH NO SIGNIFICANT WEATHER AND/OR OBSTRUCTIONS TO VISIBILITY. NOT ALL STATIONS ARE QUALITY CONTROLLED. USE DATA WITH CAUTION... ESPECIALLY DEWPOINT OBSERVATIONS. SCZ027-030-031-034>040-042>050-172200- ...SOUTHEAST SOUTH CAROLINA... CITY SKY/WX TMP DP RH WIND PRES REMARKS N CHARLESTON CLOUDY 68 43 40 NE13 30.22S WATERFRONT PRK N/A 66 51 58 NE10 30.08S JOHNS ISLAND FAIR 66 41 39 N9G16 30.22S PINOPOLIS N/A 66 46 48 NE10G17 30.15S MONCKS CORNER FAIR 66 41 39 NE8 30.23S SUMMERVILLE FAIR 66 41 39 NE10 30.24S BEAUFORT MCAS MOSUNNY 70 43 37 NE13G21 30.22S BEAUFORT ARPT FAIR 68 43 40 N12G18 30.21S HILTON HEAD IS MOSUNNY 68 45 42 NE10 30.21F WALTERBORO CLEAR 66 41 39 N10 30.24S ALLENDALE NOT AVBL ...SOUTHERN MIDLANDS AND PEE DEE... CITY SKY/WX TMP DP RH WIND PRES REMARKS GEORGETOWN FAIR 64 37 36 NE10 30.25R KINGSTREE FAIR 64 36 34 N5 30.24F ORANGEBURG SUNNY 68 35 29 NE12G21 30.25S BARNWELL N/A 70 39 32 NE10 30.24S AIKEN FAIR 64 37 36 N8 30.28F MANNING HAZE 68 45 42 MISG 30.24F VSB<1/4 COLUMBIA MOSUNNY 70 39 32 N9 30.25S SUMTER SUNNY 68 37 31 NE12 30.23F FLORENCE SUNNY 67 36 31 NE10 30.26S MYRTLE BEACH CLOUDY 66 46 48 NE12 30.25 N MYRTLE BEACH PTSUNNY 65 45 48 NE12 30.24F $$ GAZ063-065-086>088-099>101-113>116-118-119-134>141-150-172200- ...SOUTHEAST GEORGIA... CITY SKY/WX TMP DP RH WIND PRES REMARKS SAVANNAH ARPT MOSUNNY 70 38 31 NE15G21 30.21S HUNTER AAF SUNNY 70 44 40 NE10G16 30.18F FORT STEWART SUNNY 70 41 34 NE10 30.18S STATESBORO SUNNY 71 33 24 E8 30.22S SYLVANIA CLEAR 70 42 36 NE8 30.23S CLAXTON FAIR 71 40 32 N7 30.21F ...CSRA...CENTRAL AND FAR SOUTHEAST GEORGIA... CITY SKY/WX TMP DP RH WIND PRES REMARKS THOMSON SUNNY 68 39 35 E9 30.29F AUGUSTA-BUSH SUNNY 72 40 31 N12 30.24F AUGUSTA-DANIEL SUNNY 71 38 29 NE10 30.25F SWAINSBORO FAIR 70 41 35 MISG 30.23S VIDALIA SUNNY 72 43 35 NE10G16 30.21S EASTMAN FAIR 73 12 9 NE9 30.23S HAZLEHURST FAIR 72 15 11 NE9 30.19S ALMA SUNNY 72 40 31 VRB7 30.18S WAYCROSS MOSUNNY 72 39 29 E9 30.17F JESUP NOT AVBL BAXLEY FAIR 70 37 30 NE9G17 30.19S BRUNSWICK MOSUNNY 66 52 59 NE10G21 30.19S SAINT SIMONS CLOUDY 67 56 67 NE18G26 30.18S $$ SCZ027-028-034-036>038-045-046-048>050-GAZ119-141-172200- ...LAKE AND SUPPLEMENTAL COASTAL OBSERVATIONS... STATION/POSITION TIME TEMP WIND PRES WAVE SWELL AIR SEA DIR/SP/G HT/PER HT/PER/DIR (UTC) (F) (DEG/KT/KT) (MB) (FT/S) (FT/S/D) WINYAH BAY 2030 65 20/ 9 1024.0S LAKE MURRAY 2120 68 30/ 3/ 7 1023.4 ACE BASIN NERRS 2045 69 10/ 4 1023.0S FORT PULASKI 2100 67 77 30/ 13/ 16 1023.1 SAPELO ISLAND 2100 68 30/ 13 1022.0 $$ ANZ835-935-AMZ111-154-330-350-352-354-370-450-454-472-172200- ...C-MAN AND BUOY OBSERVATIONS... STATION/POSITION TIME TEMP WIND PRES WAVE SWELL AIR SEA DIR/SP/G HT/PER HT/PER/DIR (UTC) (F) (DEG/KT/KT) (MB) (FT/S) (FT/S/D) BUOY 41004 2110 69 80 30/ 23/ 27 1021.5 BUOY 41008 2050 67 78 40/ 21/ 29 1021.2R 8/ 6 3/110/10 FOLLY BEACH CMAN 2100 64 30/ 18/ 22 1023.9S CAPERS NEARSHORE 2108 63 76 40/ 21/ 29 1022.6S FRIPP NEARSHORE 2108 68 40/ 16/ 21 N/A STATION/POSITION TIME TEMP WIND PRES WAVE SWELL AIR SEA DIR/SP/G HT/PER HT/PER/DIR (UTC) (F) (DEG/KT/KT) (MB) (FT/S) (FT/S/D) 5E ST. MARYS GA 2100 79 N/A 8/ 6 2/120/11 FRYING PAN BUOY 2110 67 77 40/ 21/ 27 1022.3 BUOY 41025 2050 65 81 20/ 19/ 25 1022.7F 8/10 5/ 40/10 CAPE LOOKOUT NC 2100 60 20/ 15/ 19 1024.2R BUOY 41002 2050 74 80 40/ 27/ 33 1016.9R 12/10 BUOY 41010 NOT AVBL ST AUGUSTINE FL 2100 73 79 10/ 30/ 34 1019.0R $$

USA.gov is the U.S. government's official web portal to all federal, state and local government web resources and services.